Time,TemperatureF,DewpointF,PressureIn,WindDirection,WindDirectionDegrees,WindSpeedMPH,WindSpeedGustMPH,Humidity,HourlyPrecipIn,Conditions,Clouds,dailyrainin,SoftwareType,DateUTC
2013-02-23 00:00:00,27.8,21.8,30.33,ESE,115,0.0,0.0,78,0.00,CLR,FEW,0.00,WeatherDisplay:10.37,2013-02-23 05:00:00,
2013-02-23 00:02:00,27.8,22.1,30.33,ESE,115,0.0,0.0,79,0.00,CLR,FEW,0.00,WeatherDisplay:10.37,2013-02-23 05:02:00,
2013-02-23 00:07:00,27.6,22.2,30.33,ESE,115,0.0,0.0,80,0.00,CLR,FEW,0.00,WeatherDisplay:10.37,2013-02-23 05:07:00,
2013-02-23 00:12:00,27.6,21.9,30.32,ESE,115,0.0,0.0,79,0.00,CLR,FEW,0.00,WeatherDisplay:10.37,2013-02-23 05:12:00,
2013-02-23 00:17:00,27.6,21.6,30.32,ESE,115,0.0,0.0,78,0.00,CLR,FEW,0.00,WeatherDisplay:10.37,2013-02-23 05:17:00,
2013-02-23 00:22:00,27.6,21.6,30.32,ESE,115,0.0,0.0,78,0.00,CLR,FEW,0.00,WeatherDisplay:10.37,2013-02-23 05:22:00,
2013-02-23 00:27:00,27.5,21.5,30.32,ESE,115,0.0,0.0,78,0.00,CLR,FEW,0.00,WeatherDisplay:10.37,2013-02-23 05:27:00,
2013-02-23 00:32:00,27.6,21.6,30.32,ESE,115,0.0,0.0,78,0.00,CLR,FEW,0.00,WeatherDisplay:10.37,2013-02-23 05:32:00,
2013-02-23 00:37:00,27.6,21.6,30.32,ESE,115,0.0,0.0,78,0.00,CLR,FEW,0.00,WeatherDisplay:10.37,2013-02-23 05:37:00,
2013-02-23 00:42:00,27.6,21.6,30.32,ESE,115,0.0,0.0,78,0.00,CLR,FEW,0.00,WeatherDisplay:10.37,2013-02-23 05:42:00,
2013-02-23 00:47:00,27.7,21.7,30.32,ESE,115,0.0,0.0,78,0.00,CLR,FEW,0.00,WeatherDisplay:10.37,2013-02-23 05:47:00,
2013-02-23 00:52:00,27.8,22.1,30.31,ESE,115,0.0,0.0,79,0.00,CLR,FEW,0.00,WeatherDisplay:10.37,2013-02-23 05:52:00,
2013-02-23 00:57:00,27.7,22.0,30.31,ESE,115,0.0,0.0,79,0.00,CLR,FEW,0.00,WeatherDisplay:10.37,2013-02-23 05:57:00,
2013-02-23 01:02:00,27.7,22.0,30.31,ESE,115,0.0,0.0,79,0.00,CLR,FEW,0.00,WeatherDisplay:10.37,2013-02-23 06:02:00,
2013-02-23 01:07:00,27.7,22.0,30.31,ESE,115,0.0,0.0,79,0.00,CLR,FEW,0.00,WeatherDisplay:10.37,2013-02-23 06:07:00,
2013-02-23 01:12:00,27.7,22.0,30.31,ESE,115,0.0,0.0,79,0.00,CLR,FEW,0.00,WeatherDisplay:10.37,2013-02-23 06:12:00,
2013-02-23 01:17:00,27.7,22.0,30.31,ESE,115,1.2,0.0,79,0.00,CLR,FEW,0.00,WeatherDisplay:10.37,2013-02-23 06:17:00,
2013-02-23 01:22:00,27.8,22.4,30.31,ESE,115,0.0,0.0,80,0.00,CLR,FEW,0.00,WeatherDisplay:10.37,2013-02-23 06:22:00,
2013-02-23 01:27:00,27.7,22.3,30.30,ESE,115,0.0,0.0,80,0.00,CLR,FEW,0.00,WeatherDisplay:10.37,2013-02-23 06:27:00,
2013-02-23 01:32:00,27.8,22.1,30.30,ESE,115,0.0,0.0,79,0.00,CLR,FEW,0.00,WeatherDisplay:10.37,2013-02-23 06:32:00,
2013-02-23 01:37:00,27.8,22.4,30.30,ESE,115,0.0,0.0,80,0.00,CLR,FEW,0.00,WeatherDisplay:10.37,2013-02-23 06:37:00,
2013-02-23 01:42:00,27.8,22.4,30.30,ESE,115,0.0,0.0,80,0.00,CLR,FEW,0.00,WeatherDisplay:10.37,2013-02-23 06:42:00,
2013-02-23 01:47:00,27.8,22.4,30.30,ESE,115,0.0,0.0,80,0.00,CLR,FEW,0.00,WeatherDisplay:10.37,2013-02-23 06:47:00,
2013-02-23 01:52:00,27.8,22.7,30.30,ESE,115,0.0,0.0,81,0.00,CLR,FEW,0.00,WeatherDisplay:10.37,2013-02-23 06:52:00,
2013-02-23 01:57:00,27.7,22.6,30.30,ESE,115,0.0,0.0,81,0.00,CLR,FEW,0.00,WeatherDisplay:10.37,2013-02-23 06:57:00,
2013-02-23 02:02:00,27.7,22.6,30.30,ESE,115,0.0,0.0,81,0.00,CLR,FEW,0.00,WeatherDisplay:10.37,2013-02-23 07:02:00,
2013-02-23 02:07:00,27.7,22.3,30.30,ESE,115,0.0,0.0,80,0.00,CLR,FEW,0.00,WeatherDisplay:10.37,2013-02-23 07:07:00,
2013-02-23 02:12:00,27.7,22.3,30.30,ESE,115,0.0,0.0,80,0.00,CLR,FEW,0.00,WeatherDisplay:10.37,2013-02-23 07:12:00,
2013-02-23 02:17:00,27.8,22.4,30.30,ESE,115,0.0,0.0,80,0.00,CLR,FEW,0.00,WeatherDisplay:10.37,2013-02-23 07:17:00,
2013-02-23 02:22:00,27.8,22.4,30.30,ESE,115,1.2,0.0,80,0.00,CLR,FEW,0.00,WeatherDisplay:10.37,2013-02-23 07:22:00,
2013-02-23 02:27:00,27.9,22.5,30.30,ESE,115,0.0,0.0,80,0.00,CLR,FEW,0.00,WeatherDisplay:10.37,2013-02-23 07:27:00,
2013-02-23 02:32:00,27.9,22.5,30.30,ESE,115,0.0,0.0,80,0.00,CLR,FEW,0.00,WeatherDisplay:10.37,2013-02-23 07:32:00,
2013-02-23 02:37:00,27.9,22.8,30.30,ESE,115,0.0,0.0,81,0.00,CLR,FEW,0.00,WeatherDisplay:10.37,2013-02-23 07:37:00,
2013-02-23 02:42:00,27.9,22.8,30.30,ESE,115,0.0,0.0,81,0.00,CLR,FEW,0.00,WeatherDisplay:10.37,2013-02-23 07:42:00,
2013-02-23 02:47:00,27.9,22.5,30.29,ESE,115,0.0,0.1,80,0.00,CLR,FEW,0.00,WeatherDisplay:10.37,2013-02-23 07:47:00,
2013-02-23 02:52:00,27.9,22.5,30.29,ESE,115,0.0,0.0,80,0.00,CLR,FEW,0.00,WeatherDisplay:10.37,2013-02-23 07:52:00,
2013-02-23 02:57:00,27.9,22.8,30.29,ESE,115,1.2,1.2,81,0.00,CLR,FEW,0.00,WeatherDisplay:10.37,2013-02-23 07:57:00,
2013-02-23 03:02:00,27.9,22.5,30.29,ESE,115,0.0,0.0,80,0.00,CLR,FEW,0.00,WeatherDisplay:10.37,2013-02-23 08:02:00,
2013-02-23 03:07:00,27.9,22.8,30.28,ESE,115,1.2,1.2,81,0.00,CLR,FEW,0.00,WeatherDisplay:10.37,2013-02-23 08:07:00,
2013-02-23 03:13:00,27.9,23.1,30.28,ESE,115,0.0,0.0,82,0.00,CLR,FEW,0.00,WeatherDisplay:10.37,2013-02-23 08:13:00,
2013-02-23 03:17:00,27.9,22.8,30.28,ESE,115,0.0,0.0,81,0.00,CLR,FEW,0.00,WeatherDisplay:10.37,2013-02-23 08:17:00,
2013-02-23 03:22:00,27.8,23.3,30.28,ESE,115,0.0,0.0,83,0.00,CLR,FEW,0.00,WeatherDisplay:10.37,2013-02-23 08:22:00,
2013-02-23 03:27:00,27.8,23.6,30.27,ESE,115,1.2,1.2,84,0.00,CLR,FEW,0.00,WeatherDisplay:10.37,2013-02-23 08:27:00,
2013-02-23 03:33:00,27.7,23.2,30.27,ESE,115,0.0,0.0,83,0.00,CLR,FEW,0.00,WeatherDisplay:10.37,2013-02-23 08:33:00,
2013-02-23 03:38:00,27.6,23.1,30.27,ESE,115,0.0,0.0,83,0.00,CLR,FEW,0.00,WeatherDisplay:10.37,2013-02-23 08:38:00,
2013-02-23 03:43:00,27.6,22.8,30.27,ESE,115,0.0,0.0,82,0.00,CLR,FEW,0.00,WeatherDisplay:10.37,2013-02-23 08:43:00,
2013-02-23 03:48:00,27.6,22.8,30.27,ESE,115,0.0,0.0,82,0.00,CLR,FEW,0.00,WeatherDisplay:10.37,2013-02-23 08:48:00,
2013-02-23 03:53:00,27.6,23.1,30.26,ESE,115,1.2,0.0,83,0.00,CLR,FEW,0.00,WeatherDisplay:10.37,2013-02-23 08:53:00,
2013-02-23 03:58:00,27.6,23.1,30.26,ESE,115,1.2,0.0,83,0.00,CLR,FEW,0.00,WeatherDisplay:10.37,2013-02-23 08:58:00,
2013-02-23 04:03:00,27.7,22.9,30.26,ESE,115,1.2,0.0,82,0.00,CLR,FEW,0.00,WeatherDisplay:10.37,2013-02-23 09:03:00,
2013-02-23 04:08:00,27.7,22.9,30.26,ESE,115,0.0,0.0,82,0.00,CLR,FEW,0.00,WeatherDisplay:10.37,2013-02-23 09:08:00,
2013-02-23 04:13:00,27.7,23.2,30.26,ESE,115,0.0,0.0,83,0.00,CLR,FEW,0.00,WeatherDisplay:10.37,2013-02-23 09:13:00,
2013-02-23 04:18:00,27.6,23.1,30.26,ESE,115,0.0,0.0,83,0.00,CLR,FEW,0.00,WeatherDisplay:10.37,2013-02-23 09:18:00,
2013-02-23 04:23:00,27.6,23.4,30.26,ESE,115,0.0,0.0,84,0.00,CLR,FEW,0.00,WeatherDisplay:10.37,2013-02-23 09:23:00,
2013-02-23 04:28:00,27.6,23.4,30.26,ESE,115,0.0,0.0,84,0.00,CLR,FEW,0.00,WeatherDisplay:10.37,2013-02-23 09:28:00,
2013-02-23 04:33:00,27.6,23.1,30.26,ESE,115,0.0,0.0,83,0.00,CLR,FEW,0.00,WeatherDisplay:10.37,2013-02-23 09:33:00,
2013-02-23 04:38:00,27.6,23.4,30.25,ESE,115,0.0,0.0,84,0.00,CLR,FEW,0.00,WeatherDisplay:10.37,2013-02-23 09:38:00,
2013-02-23 04:43:00,27.6,23.4,30.25,ESE,115,0.0,0.0,84,0.00,CLR,FEW,0.00,WeatherDisplay:10.37,2013-02-23 09:43:00,
2013-02-23 04:47:00,27.6,23.1,30.26,ESE,115,0.0,0.0,83,0.00,CLR,FEW,0.00,WeatherDisplay:10.37,2013-02-23 09:47:00,
2013-02-23 04:52:00,27.6,23.1,30.26,ESE,115,0.0,0.0,83,0.00,CLR,FEW,0.00,WeatherDisplay:10.37,2013-02-23 09:52:00,
2013-02-23 04:57:00,27.6,23.1,30.25,ESE,115,0.0,0.0,83,0.00,CLR,FEW,0.00,WeatherDisplay:10.37,2013-02-23 09:57:00,
2013-02-23 05:02:00,27.6,23.4,30.26,ESE,115,0.0,0.0,84,0.00,CLR,FEW,0.00,WeatherDisplay:10.37,2013-02-23 10:02:00,
2013-02-23 05:07:00,27.6,23.4,30.25,ESE,115,0.0,0.0,84,0.00,CLR,FEW,0.00,WeatherDisplay:10.37,2013-02-23 10:07:00,
2013-02-23 05:12:00,27.6,23.1,30.26,ESE,115,0.0,0.0,83,0.00,CLR,FEW,0.00,WeatherDisplay:10.37,2013-02-23 10:12:00,
2013-02-23 05:17:00,27.7,23.2,30.26,ESE,115,0.0,0.0,83,0.00,CLR,FEW,0.00,WeatherDisplay:10.37,2013-02-23 10:17:00,
2013-02-23 05:22:00,27.7,23.2,30.26,ESE,115,0.0,0.0,83,0.00,CLR,FEW,0.00,WeatherDisplay:10.37,2013-02-23 10:22:00,
2013-02-23 05:27:00,27.7,23.5,30.25,ESE,115,0.0,0.0,84,0.00,CLR,FEW,0.00,WeatherDisplay:10.37,2013-02-23 10:27:00,
2013-02-23 05:32:00,27.8,23.6,30.25,ESE,115,0.0,0.0,84,0.00,CLR,FEW,0.00,WeatherDisplay:10.37,2013-02-23 10:32:00,
2013-02-23 05:37:00,27.8,23.6,30.25,ESE,115,0.0,0.0,84,0.00,CLR,FEW,0.00,WeatherDisplay:10.37,2013-02-23 10:37:00,
2013-02-23 05:42:00,27.8,23.6,30.25,ESE,115,0.0,0.0,84,0.00,CLR,FEW,0.00,WeatherDisplay:10.37,2013-02-23 10:42:00,
2013-02-23 05:48:00,27.8,23.6,30.26,ESE,115,0.0,0.0,84,0.00,CLR,FEW,0.00,WeatherDisplay:10.37,2013-02-23 10:48:00,
2013-02-23 05:53:00,27.8,23.9,30.25,ESE,115,0.0,0.0,85,0.00,CLR,FEW,0.00,WeatherDisplay:10.37,2013-02-23 10:53:00,
2013-02-23 05:58:00,27.8,23.9,30.25,ESE,115,0.0,0.0,85,0.00,CLR,FEW,0.00,WeatherDisplay:10.37,2013-02-23 10:58:00,
2013-02-23 06:03:00,27.8,23.9,30.25,ESE,115,0.0,0.0,85,0.00,CLR,FEW,0.00,WeatherDisplay:10.37,2013-02-23 11:03:00,
2013-02-23 06:08:00,27.8,23.9,30.25,ESE,115,0.0,0.0,85,0.00,CLR,FEW,0.00,WeatherDisplay:10.37,2013-02-23 11:08:00,
2013-02-23 06:13:00,27.8,23.9,30.24,ESE,115,0.0,0.0,85,0.00,CLR,FEW,0.00,WeatherDisplay:10.37,2013-02-23 11:13:00,
2013-02-23 06:17:00,27.7,23.8,30.24,ESE,115,0.0,0.0,85,0.00,CLR,FEW,0.00,WeatherDisplay:10.37,2013-02-23 11:17:00,
2013-02-23 06:22:00,27.7,23.8,30.24,ESE,115,0.0,0.0,85,0.00,CLR,FEW,0.00,WeatherDisplay:10.37,2013-02-23 11:22:00,
2013-02-23 06:27:00,27.7,23.8,30.24,ESE,115,0.0,0.0,85,0.00,CLR,FEW,0.00,WeatherDisplay:10.37,2013-02-23 11:27:00,
2013-02-23 06:32:00,27.7,24.1,30.23,ESE,115,0.0,0.0,86,0.00,CLR,FEW,0.00,WeatherDisplay:10.37,2013-02-23 11:32:00,
2013-02-23 06:37:00,27.7,24.1,30.23,ESE,115,0.0,0.0,86,0.00,CLR,FEW,0.00,WeatherDisplay:10.37,2013-02-23 11:37:00,
2013-02-23 06:42:00,27.7,24.3,30.24,ESE,115,0.0,0.0,87,0.00,CLR,FEW,0.00,WeatherDisplay:10.37,2013-02-23 11:42:00,
2013-02-23 06:48:00,27.7,24.1,30.24,ESE,115,0.0,0.0,86,0.00,CLR,FEW,0.00,WeatherDisplay:10.37,2013-02-23 11:48:00,
2013-02-23 06:53:00,27.8,24.2,30.24,ESE,115,1.0,1.0,86,0.00,CLR,FEW,0.00,WeatherDisplay:10.37,2013-02-23 11:53:00,
2013-02-23 06:58:00,27.8,24.2,30.24,ESE,115,0.0,0.0,86,0.00,CLR,FEW,0.00,WeatherDisplay:10.37,2013-02-23 11:58:00,
2013-02-23 07:03:00,27.9,24.3,30.23,ESE,115,2.0,2.0,86,0.00,CLR,FEW,0.00,WeatherDisplay:10.37,2013-02-23 12:03:00,
2013-02-23 07:08:00,27.9,24.0,30.23,ESE,115,4.6,4.6,85,0.00,CLR,FEW,0.00,WeatherDisplay:10.37,2013-02-23 12:08:00,
2013-02-23 07:13:00,28.0,24.1,30.23,ESE,115,2.3,2.3,85,0.00,CLR,FEW,0.00,WeatherDisplay:10.37,2013-02-23 12:13:00,
2013-02-23 07:18:00,28.1,24.2,30.23,ESE,115,1.2,0.0,85,0.00,CLR,FEW,0.00,WeatherDisplay:10.37,2013-02-23 12:18:00,
2013-02-23 07:23:00,28.1,24.2,30.23,ESE,115,0.0,0.0,85,0.00,CLR,FEW,0.00,WeatherDisplay:10.37,2013-02-23 12:23:00,
2013-02-23 07:28:00,28.2,24.3,30.23,ESE,115,1.2,0.0,85,0.00,CLR,FEW,0.00,WeatherDisplay:10.37,2013-02-23 12:28:00,
2013-02-23 07:33:00,28.3,24.4,30.23,ESE,115,0.0,0.1,85,0.00,CLR,FEW,0.00,WeatherDisplay:10.37,2013-02-23 12:33:00,
2013-02-23 07:38:00,28.3,24.4,30.24,ESE,115,0.0,0.0,85,0.00,CLR,FEW,0.00,WeatherDisplay:10.37,2013-02-23 12:38:00,
2013-02-23 07:43:00,28.4,24.5,30.24,ESE,115,2.3,2.3,85,0.00,CLR,FEW,0.00,WeatherDisplay:10.37,2013-02-23 12:43:00,
2013-02-23 07:47:00,28.5,24.6,30.23,ESE,115,0.0,0.1,85,0.00,CLR,FEW,0.00,WeatherDisplay:10.37,2013-02-23 12:47:00,
2013-02-23 07:52:00,28.5,24.3,30.23,ESE,103,2.3,2.3,84,0.00,CLR,FEW,0.00,WeatherDisplay:10.37,2013-02-23 12:52:00,
2013-02-23 07:57:00,28.7,24.5,30.23,ESE,103,1.2,1.2,84,0.00,CLR,FEW,0.00,WeatherDisplay:10.37,2013-02-23 12:57:00,
2013-02-23 08:02:00,28.7,24.8,30.23,East,95,2.3,2.3,85,0.00,CLR,FEW,0.00,WeatherDisplay:10.37,2013-02-23 13:02:00,
2013-02-23 08:07:00,28.8,24.6,30.23,ESE,122,4.0,4.0,84,0.00,CLR,FEW,0.00,WeatherDisplay:10.37,2013-02-23 13:07:00,
2013-02-23 08:12:00,28.9,24.7,30.23,ESE,119,3.5,3.5,84,0.00,CLR,FEW,0.00,WeatherDisplay:10.37,2013-02-23 13:12:00,
2013-02-23 08:17:00,29.0,25.1,30.23,ENE,78,1.2,0.0,85,0.00,CLR,FEW,0.00,WeatherDisplay:10.37,2013-02-23 13:17:00,
2013-02-23 08:22:00,29.2,25.3,30.23,East,79,3.0,3.0,85,0.00,CLR,FEW,0.00,WeatherDisplay:10.37,2013-02-23 13:22:00,
2013-02-23 08:27:00,29.3,25.1,30.23,East,84,1.2,0.0,84,0.00,CLR,FEW,0.00,WeatherDisplay:10.37,2013-02-23 13:27:00,
2013-02-23 08:32:00,29.5,25.3,30.23,East,84,1.2,1.2,84,0.00,CLR,FEW,0.00,WeatherDisplay:10.37,2013-02-23 13:32:00,
2013-02-23 08:37:00,29.6,25.4,30.22,East,84,3.5,3.5,84,0.00,CLR,FEW,0.00,WeatherDisplay:10.37,2013-02-23 13:37:00,
2013-02-23 08:42:00,29.7,25.5,30.22,ENE,78,3.5,3.5,84,0.00,CLR,FEW,0.00,WeatherDisplay:10.37,2013-02-23 13:42:00,
2013-02-23 08:47:00,29.7,25.5,30.22,NE,51,2.3,2.3,84,0.00,CLR,FEW,0.00,WeatherDisplay:10.37,2013-02-23 13:47:00,
2013-02-23 08:52:00,29.8,25.6,30.22,SE,132,1.2,1.2,84,0.00,CLR,FEW,0.00,WeatherDisplay:10.37,2013-02-23 13:52:00,
2013-02-23 08:57:00,29.9,25.7,30.21,SE,132,3.5,3.5,84,0.00,CLR,FEW,0.00,WeatherDisplay:10.37,2013-02-23 13:57:00,
2013-02-23 09:02:00,30.0,25.8,30.22,SE,132,0.0,0.0,84,0.00,CLR,FEW,0.00,WeatherDisplay:10.37,2013-02-23 14:02:00,
2013-02-23 09:07:00,30.0,25.8,30.22,ENE,78,1.2,0.0,84,0.00,CLR,FEW,0.00,WeatherDisplay:10.37,2013-02-23 14:07:00,
2013-02-23 09:12:00,30.1,25.8,30.22,ESE,117,3.5,3.5,84,0.00,CLR,FEW,0.00,WeatherDisplay:10.37,2013-02-23 14:12:00,
2013-02-23 09:17:00,30.2,25.9,30.22,ESE,117,0.0,0.0,84,0.00,CLR,FEW,0.00,WeatherDisplay:10.37,2013-02-23 14:17:00,
2013-02-23 09:22:00,30.3,26.0,30.22,ESE,117,2.0,2.0,84,0.00,CLR,FEW,0.00,WeatherDisplay:10.37,2013-02-23 14:22:00,
2013-02-23 09:27:00,30.4,26.1,30.21,ENE,67,3.0,3.0,84,0.00,CLR,FEW,0.00,WeatherDisplay:10.37,2013-02-23 14:27:00,
2013-02-23 09:32:00,30.5,26.5,30.21,ENE,67,0.0,0.0,85,0.00,CLR,FEW,0.00,WeatherDisplay:10.37,2013-02-23 14:32:00,
2013-02-23 09:37:00,30.7,26.4,30.20,East,81,2.3,2.3,84,0.00,CLR,FEW,0.00,WeatherDisplay:10.37,2013-02-23 14:37:00,
2013-02-23 09:42:00,30.8,26.5,30.20,East,81,3.5,3.5,84,0.00,CLR,FEW,0.00,WeatherDisplay:10.37,2013-02-23 14:42:00,
2013-02-23 09:47:00,30.9,26.6,30.20,East,93,1.2,1.2,84,0.00,CLR,FEW,0.00,WeatherDisplay:10.37,2013-02-23 14:47:00,
2013-02-23 09:52:00,30.9,26.6,30.19,ENE,71,2.3,2.3,84,0.00,CLR,FEW,0.00,WeatherDisplay:10.37,2013-02-23 14:52:00,
2013-02-23 09:57:00,31.0,26.7,30.19,East,88,3.5,3.5,84,0.00,CLR,FEW,0.00,WeatherDisplay:10.37,2013-02-23 14:57:00,
2013-02-23 10:02:00,31.1,26.8,30.19,ENE,78,1.2,1.2,84,0.00,CLR,FEW,0.00,WeatherDisplay:10.37,2013-02-23 15:02:00,
2013-02-23 10:07:00,31.2,27.2,30.19,ENE,78,1.2,1.2,85,0.00,CLR,FEW,0.00,WeatherDisplay:10.37,2013-02-23 15:07:00,
2013-02-23 10:12:00,31.3,27.0,30.19,ENE,59,1.2,1.2,84,0.00,CLR,FEW,0.00,WeatherDisplay:10.37,2013-02-23 15:12:00,
2013-02-23 10:17:00,31.5,27.2,30.19,ESE,123,1.2,1.2,84,0.00,CLR,FEW,0.00,WeatherDisplay:10.37,2013-02-23 15:17:00,
2013-02-23 10:22:00,31.6,27.3,30.18,ESE,123,2.3,2.3,84,0.00,CLR,FEW,0.00,WeatherDisplay:10.37,2013-02-23 15:22:00,
2013-02-23 10:27:00,31.7,27.4,30.18,East,86,3.5,3.5,84,0.00,CLR,FEW,0.00,WeatherDisplay:10.37,2013-02-23 15:27:00,
2013-02-23 10:32:00,31.8,27.5,30.18,East,85,4.6,4.6,84,0.00,CLR,FEW,0.00,WeatherDisplay:10.37,2013-02-23 15:32:00,
2013-02-23 10:37:00,31.8,27.5,30.18,ENE,74,3.5,3.5,84,0.00,CLR,FEW,0.00,WeatherDisplay:10.37,2013-02-23 15:37:00,
2013-02-23 10:43:00,31.8,27.5,30.17,ENE,72,2.3,2.3,84,0.00,CLR,FEW,0.00,WeatherDisplay:10.37,2013-02-23 15:43:00,
2013-02-23 10:48:00,31.7,27.4,30.18,ESE,107,5.0,5.0,84,0.00,CLR,FEW,0.00,WeatherDisplay:10.37,2013-02-23 15:48:00,
2013-02-23 10:53:00,31.7,27.1,30.18,ENE,78,3.5,3.5,83,0.00,CLR,FEW,0.00,WeatherDisplay:10.37,2013-02-23 15:53:00,
2013-02-23 10:58:00,31.6,27.3,30.18,ENE,78,1.2,1.2,84,0.00,CLR,FEW,0.00,WeatherDisplay:10.37,2013-02-23 15:58:00,
2013-02-23 11:03:00,31.6,27.3,30.17,ESE,104,3.5,3.5,84,0.00,CLR,FEW,0.00,WeatherDisplay:10.37,2013-02-23 16:03:00,
2013-02-23 11:08:00,31.6,27.3,30.17,East,94,4.6,4.6,84,0.00,CLR,FEW,0.00,WeatherDisplay:10.37,2013-02-23 16:08:00,
2013-02-23 11:13:00,31.5,27.5,30.17,ESE,123,3.5,3.5,85,0.00,CLR,FEW,0.00,WeatherDisplay:10.37,2013-02-23 16:13:00,
2013-02-23 11:18:00,31.5,27.5,30.17,ENE,63,3.5,3.5,85,0.00,CLR,FEW,0.00,WeatherDisplay:10.37,2013-02-23 16:18:00,
2013-02-23 11:23:00,31.5,27.8,30.17,ENE,64,4.6,4.6,86,0.00,CLR,FEW,0.00,WeatherDisplay:10.37,2013-02-23 16:23:00,
2013-02-23 11:28:00,31.4,27.7,30.17,ESE,102,6.9,6.9,86,0.00,CLR,FEW,0.00,WeatherDisplay:10.37,2013-02-23 16:28:00,
2013-02-23 11:33:00,31.3,27.9,30.16,East,88,3.5,3.5,87,0.00,CLR,FEW,0.00,WeatherDisplay:10.37,2013-02-23 16:33:00,
2013-02-23 11:38:00,31.2,28.1,30.15,SE,142,5.8,5.8,88,0.00,CLR,FEW,0.00,WeatherDisplay:10.37,2013-02-23 16:38:00,
2013-02-23 11:43:00,31.2,28.1,30.15,ENE,75,3.5,3.5,88,0.00,CLR,FEW,0.00,WeatherDisplay:10.37,2013-02-23 16:43:00,
2013-02-23 11:48:00,31.2,28.3,30.15,ESE,121,2.0,2.0,89,0.00,CLR,FEW,0.00,WeatherDisplay:10.37,2013-02-23 16:48:00,
2013-02-23 11:53:00,31.2,28.3,30.15,East,94,2.3,2.3,89,0.00,CLR,FEW,0.00,WeatherDisplay:10.37,2013-02-23 16:53:00,
2013-02-23 11:58:00,31.1,28.2,30.15,ESE,121,3.5,3.5,89,0.00,CLR,FEW,0.00,WeatherDisplay:10.37,2013-02-23 16:58:00,
2013-02-23 12:03:00,31.1,28.2,30.14,ENE,64,4.6,4.6,89,0.00,CLR,FEW,0.00,WeatherDisplay:10.37,2013-02-23 17:03:00,
2013-02-23 12:08:00,31.0,28.1,30.14,SE,130,4.6,4.6,89,0.00,CLR,FEW,0.00,WeatherDisplay:10.37,2013-02-23 17:08:00,
2013-02-23 12:13:00,31.1,28.2,30.14,ENE,74,2.3,2.3,89,0.00,CLR,FEW,0.00,WeatherDisplay:10.37,2013-02-23 17:13:00,
2013-02-23 12:18:00,31.1,28.2,30.14,SE,134,4.6,4.6,89,0.00,CLR,FEW,0.00,WeatherDisplay:10.37,2013-02-23 17:18:00,
2013-02-23 12:22:00,31.0,28.1,30.13,SE,129,3.5,3.5,89,0.00,CLR,FEW,0.00,WeatherDisplay:10.37,2013-02-23 17:22:00,
2013-02-23 12:27:00,31.0,28.1,30.13,SE,125,3.5,3.5,89,0.00,CLR,FEW,0.00,WeatherDisplay:10.37,2013-02-23 17:27:00,
2013-02-23 12:32:00,31.0,28.1,30.13,SE,137,5.8,5.8,89,0.00,CLR,FEW,0.00,WeatherDisplay:10.37,2013-02-23 17:32:00,
2013-02-23 12:37:00,30.9,28.3,30.13,East,96,2.3,2.3,90,0.00,CLR,FEW,0.00,WeatherDisplay:10.37,2013-02-23 17:37:00,
2013-02-23 12:42:00,31.0,28.4,30.12,East,96,3.5,3.5,90,0.00,CLR,FEW,0.00,WeatherDisplay:10.37,2013-02-23 17:42:00,
2013-02-23 12:47:00,31.0,28.4,30.13,SE,132,2.3,2.3,90,0.00,CLR,FEW,0.00,WeatherDisplay:10.37,2013-02-23 17:47:00,
2013-02-23 12:52:00,31.0,28.7,30.13,ENE,77,2.3,2.3,91,0.00,CLR,FEW,0.00,WeatherDisplay:10.37,2013-02-23 17:52:00,
2013-02-23 12:57:00,31.0,28.7,30.12,ENE,60,3.5,3.5,91,0.00,CLR,FEW,0.00,WeatherDisplay:10.37,2013-02-23 17:57:00,
2013-02-23 13:02:00,31.0,28.7,30.12,East,101,5.0,5.0,91,0.00,CLR,FEW,0.00,WeatherDisplay:10.37,2013-02-23 18:02:00,
2013-02-23 13:07:00,31.0,28.7,30.12,East,90,3.5,3.5,91,0.00,CLR,FEW,0.00,WeatherDisplay:10.37,2013-02-23 18:07:00,
2013-02-23 13:12:00,31.0,28.9,30.12,East,90,1.2,1.2,92,0.00,CLR,FEW,0.00,WeatherDisplay:10.37,2013-02-23 18:12:00,
2013-02-23 13:17:00,31.1,29.0,30.12,ENE,78,3.5,3.5,92,0.00,CLR,FEW,0.00,WeatherDisplay:10.37,2013-02-23 18:17:00,
2013-02-23 13:22:00,31.0,28.9,30.12,East,81,2.3,2.3,92,0.00,CLR,FEW,0.00,WeatherDisplay:10.37,2013-02-23 18:22:00,
2013-02-23 13:27:00,31.0,28.9,30.12,ESE,107,3.5,3.5,92,0.00,CLR,FEW,0.00,WeatherDisplay:10.37,2013-02-23 18:27:00,
2013-02-23 13:32:00,31.0,28.9,30.12,SE,134,2.3,2.3,92,0.00,CLR,FEW,0.00,WeatherDisplay:10.37,2013-02-23 18:32:00,
2013-02-23 13:37:00,31.0,28.9,30.12,SE,134,2.3,2.3,92,0.00,CLR,FEW,0.00,WeatherDisplay:10.37,2013-02-23 18:37:00,
2013-02-23 13:42:00,31.0,28.9,30.12,SE,135,2.3,2.3,92,0.00,CLR,FEW,0.00,WeatherDisplay:10.37,2013-02-23 18:42:00,
2013-02-23 13:47:00,31.0,29.2,30.12,ESE,107,4.0,4.0,93,0.00,CLR,FEW,0.00,WeatherDisplay:10.37,2013-02-23 18:47:00,
2013-02-23 13:52:00,31.0,29.2,30.12,East,96,4.6,4.6,93,0.00,CLR,FEW,0.00,WeatherDisplay:10.37,2013-02-23 18:52:00,
2013-02-23 13:57:00,31.0,29.2,30.13,East,87,3.5,3.5,93,0.00,CLR,FEW,0.00,WeatherDisplay:10.37,2013-02-23 18:57:00,
2013-02-23 14:02:00,31.0,29.2,30.12,East,87,0.0,0.0,93,0.00,CLR,FEW,0.00,WeatherDisplay:10.37,2013-02-23 19:02:00,
2013-02-23 14:07:00,31.0,29.5,30.12,East,87,2.3,2.3,94,0.00,CLR,FEW,0.00,WeatherDisplay:10.37,2013-02-23 19:07:00,
2013-02-23 14:12:00,31.0,29.5,30.12,NE,55,2.3,2.3,94,0.00,CLR,FEW,0.00,WeatherDisplay:10.37,2013-02-23 19:12:00,
2013-02-23 14:17:00,30.9,29.4,30.12,NE,55,1.2,1.2,94,0.00,CLR,FEW,0.00,WeatherDisplay:10.37,2013-02-23 19:17:00,
2013-02-23 14:22:00,30.9,30.9,30.12,ESE,106,1.2,1.2,100,0.00,,FEW,0.00,WeatherDisplay:10.37,2013-02-23 19:22:00,
2013-02-23 14:27:00,30.9,29.4,30.12,ESE,106,0.0,0.0,94,0.00,CLR,FEW,0.00,WeatherDisplay:10.37,2013-02-23 19:27:00,
2013-02-23 14:32:00,30.9,29.4,30.11,ESE,106,2.3,2.3,94,0.00,CLR,FEW,0.00,WeatherDisplay:10.37,2013-02-23 19:32:00,
2013-02-23 14:37:00,31.0,29.5,30.11,ESE,106,2.3,2.3,94,0.00,CLR,FEW,0.00,WeatherDisplay:10.37,2013-02-23 19:37:00,
2013-02-23 14:42:00,31.1,29.8,30.10,ESE,106,1.2,1.2,95,0.00,CLR,FEW,0.00,WeatherDisplay:10.37,2013-02-23 19:42:00,
2013-02-23 14:47:00,31.2,29.9,30.10,ESE,106,2.3,2.3,95,0.00,CLR,FEW,0.00,WeatherDisplay:10.37,2013-02-23 19:47:00,
2013-02-23 14:52:00,31.1,29.8,30.10,ESE,106,2.3,2.3,95,0.00,CLR,FEW,0.00,WeatherDisplay:10.37,2013-02-23 19:52:00,
2013-02-23 14:57:00,31.1,29.8,30.10,ESE,106,2.3,2.3,95,0.00,CLR,FEW,0.00,WeatherDisplay:10.37,2013-02-23 19:57:00,
2013-02-23 15:02:00,31.1,29.8,30.10,ESE,106,1.2,1.2,95,0.00,CLR,FEW,0.00,WeatherDisplay:10.37,2013-02-23 20:02:00,
2013-02-23 15:07:00,31.1,29.8,30.09,ESE,106,2.3,2.3,95,0.00,CLR,FEW,0.00,WeatherDisplay:10.37,2013-02-23 20:07:00,
2013-02-23 15:12:00,31.2,29.9,30.09,ESE,106,4.6,4.6,95,0.00,CLR,FEW,0.00,WeatherDisplay:10.37,2013-02-23 20:12:00,
2013-02-23 15:17:00,31.1,29.8,30.09,East,87,1.2,0.0,95,0.00,CLR,FEW,0.00,WeatherDisplay:10.37,2013-02-23 20:17:00,
2013-02-23 15:22:00,31.1,29.8,30.08,East,98,3.5,3.5,95,0.00,CLR,FEW,0.00,WeatherDisplay:10.37,2013-02-23 20:22:00,
2013-02-23 15:27:00,31.2,29.9,30.08,East,98,1.2,1.2,95,0.00,CLR,FEW,0.00,WeatherDisplay:10.37,2013-02-23 20:27:00,
2013-02-23 15:32:00,31.2,29.9,30.08,ESE,119,4.6,4.6,95,0.00,CLR,FEW,0.00,WeatherDisplay:10.37,2013-02-23 20:32:00,
2013-02-23 15:37:00,31.1,29.8,30.08,ESE,119,1.2,1.2,95,0.00,CLR,FEW,0.00,WeatherDisplay:10.37,2013-02-23 20:37:00,
2013-02-23 15:42:00,31.2,29.9,30.08,East,86,3.5,3.5,95,0.00,CLR,FEW,0.00,WeatherDisplay:10.37,2013-02-23 20:42:00,
2013-02-23 15:47:00,31.2,29.9,30.08,North,360,2.3,2.3,95,0.00,CLR,FEW,0.00,WeatherDisplay:10.37,2013-02-23 20:47:00,
2013-02-23 15:52:00,31.1,29.8,30.08,East,90,1.2,1.2,95,0.00,CLR,FEW,0.00,WeatherDisplay:10.37,2013-02-23 20:52:00,
2013-02-23 15:57:00,31.1,29.8,30.07,East,90,1.2,1.2,95,0.00,CLR,FEW,0.00,WeatherDisplay:10.37,2013-02-23 20:57:00,
2013-02-23 16:02:00,31.2,29.9,30.07,East,90,1.2,0.0,95,0.00,CLR,FEW,0.00,WeatherDisplay:10.37,2013-02-23 21:02:00,
2013-02-23 16:07:00,31.1,29.8,30.08,East,90,3.5,3.5,95,0.00,CLR,FEW,0.00,WeatherDisplay:10.37,2013-02-23 21:07:00,
2013-02-23 16:12:00,31.1,29.8,30.08,East,90,1.2,0.0,95,0.00,CLR,FEW,0.00,WeatherDisplay:10.37,2013-02-23 21:12:00,
2013-02-23 16:17:00,31.1,29.8,30.08,East,91,0.0,0.0,95,0.00,CLR,FEW,0.00,WeatherDisplay:10.37,2013-02-23 21:17:00,
2013-02-23 16:22:00,31.0,29.7,30.07,East,91,2.0,2.0,95,0.00,CLR,FEW,0.00,WeatherDisplay:10.37,2013-02-23 21:22:00,
2013-02-23 16:27:00,31.0,29.7,30.07,East,82,1.2,0.0,95,0.00,CLR,FEW,0.00,WeatherDisplay:10.37,2013-02-23 21:27:00,
2013-02-23 16:32:00,31.0,29.7,30.08,East,82,2.3,2.3,95,0.00,CLR,FEW,0.00,WeatherDisplay:10.37,2013-02-23 21:32:00,
2013-02-23 16:37:00,31.0,29.7,30.08,East,82,0.0,0.0,95,0.00,CLR,FEW,0.00,WeatherDisplay:10.37,2013-02-23 21:37:00,
2013-02-23 16:42:00,31.0,29.7,30.07,ESE,114,2.3,2.3,95,0.00,CLR,FEW,0.00,WeatherDisplay:10.37,2013-02-23 21:42:00,
2013-02-23 16:47:00,31.0,29.7,30.08,SE,131,1.2,0.0,95,0.00,CLR,FEW,0.00,WeatherDisplay:10.37,2013-02-23 21:47:00,
2013-02-23 16:52:00,30.9,29.6,30.07,ESE,120,2.3,2.3,95,0.00,CLR,FEW,0.00,WeatherDisplay:10.37,2013-02-23 21:52:00,
2013-02-23 16:57:00,30.9,29.6,30.07,East,89,3.5,3.5,95,0.00,CLR,FEW,0.00,WeatherDisplay:10.37,2013-02-23 21:57:00,
2013-02-23 17:02:00,30.9,29.6,30.07,East,89,0.0,0.0,95,0.00,CLR,FEW,0.00,WeatherDisplay:10.37,2013-02-23 22:02:00,
2013-02-23 17:07:00,30.9,29.6,30.07,East,89,1.2,1.2,95,0.00,CLR,FEW,0.00,WeatherDisplay:10.37,2013-02-23 22:07:00,
2013-02-23 17:12:00,30.9,29.6,30.07,East,89,1.2,0.0,95,0.00,CLR,FEW,0.00,WeatherDisplay:10.37,2013-02-23 22:12:00,
2013-02-23 17:17:00,30.8,29.5,30.06,East,89,2.0,2.0,95,0.00,CLR,FEW,0.00,WeatherDisplay:10.37,2013-02-23 22:17:00,
2013-02-23 17:22:00,30.8,29.5,30.07,East,89,1.2,1.2,95,0.00,CLR,FEW,0.00,WeatherDisplay:10.37,2013-02-23 22:22:00,
2013-02-23 17:27:00,30.8,29.5,30.06,East,89,1.2,1.2,95,0.00,CLR,FEW,0.00,WeatherDisplay:10.37,2013-02-23 22:27:00,
2013-02-23 17:32:00,30.8,29.5,30.05,East,89,1.2,0.0,95,0.00,CLR,FEW,0.00,WeatherDisplay:10.37,2013-02-23 22:32:00,
2013-02-23 17:37:00,30.7,29.4,30.06,East,89,2.3,2.3,95,0.00,CLR,FEW,0.00,WeatherDisplay:10.37,2013-02-23 22:37:00,
2013-02-23 17:42:00,30.7,29.4,30.05,East,89,1.2,1.2,95,0.00,CLR,FEW,0.00,WeatherDisplay:10.37,2013-02-23 22:42:00,
2013-02-23 17:47:00,30.6,29.3,30.05,East,83,1.2,0.0,95,0.00,CLR,FEW,0.00,WeatherDisplay:10.37,2013-02-23 22:47:00,
2013-02-23 17:52:00,30.6,29.3,30.05,East,83,0.0,0.0,95,0.00,CLR,FEW,0.00,WeatherDisplay:10.37,2013-02-23 22:52:00,
2013-02-23 17:57:00,30.6,29.3,30.05,East,83,1.2,1.2,95,0.00,CLR,FEW,0.00,WeatherDisplay:10.37,2013-02-23 22:57:00,
2013-02-23 18:02:00,30.6,29.3,30.06,East,83,1.2,0.0,95,0.00,CLR,FEW,0.00,WeatherDisplay:10.37,2013-02-23 23:02:00,
2013-02-23 18:07:00,30.5,29.5,30.05,East,83,1.2,1.2,96,0.00,CLR,FEW,0.00,WeatherDisplay:10.37,2013-02-23 23:07:00,
2013-02-23 18:12:00,30.5,29.5,30.05,East,83,0.0,0.1,96,0.00,CLR,FEW,0.00,WeatherDisplay:10.37,2013-02-23 23:12:00,
2013-02-23 18:17:00,30.5,29.5,30.05,East,83,0.0,0.1,96,0.00,CLR,FEW,0.00,WeatherDisplay:10.37,2013-02-23 23:17:00,
2013-02-23 18:22:00,30.5,29.5,30.05,East,83,0.0,0.0,96,0.00,CLR,FEW,0.00,WeatherDisplay:10.37,2013-02-23 23:22:00,
2013-02-23 18:27:00,30.5,29.5,30.05,East,83,1.2,1.2,96,0.00,CLR,FEW,0.00,WeatherDisplay:10.37,2013-02-23 23:27:00,
2013-02-23 18:32:00,30.5,29.5,30.05,East,83,0.0,0.0,96,0.00,CLR,FEW,0.00,WeatherDisplay:10.37,2013-02-23 23:32:00,
2013-02-23 18:37:00,30.5,29.5,30.04,East,83,1.2,0.0,96,0.00,CLR,FEW,0.00,WeatherDisplay:10.37,2013-02-23 23:37:00,
2013-02-23 18:42:00,30.4,29.4,30.04,East,83,1.2,1.2,96,0.00,CLR,FEW,0.00,WeatherDisplay:10.37,2013-02-23 23:42:00,
2013-02-23 18:47:00,30.4,29.4,30.04,East,83,1.2,0.0,96,0.00,CLR,FEW,0.00,WeatherDisplay:10.37,2013-02-23 23:47:00,
2013-02-23 18:52:00,30.4,29.4,30.04,East,83,0.0,0.0,96,0.00,CLR,FEW,0.00,WeatherDisplay:10.37,2013-02-23 23:52:00,
2013-02-23 18:57:00,30.4,29.4,30.04,East,83,1.2,1.2,96,0.00,CLR,FEW,0.00,WeatherDisplay:10.37,2013-02-23 23:57:00,
2013-02-23 19:02:00,30.4,29.4,30.04,East,83,1.2,1.2,96,0.00,CLR,FEW,0.00,WeatherDisplay:10.37,2013-02-24 00:02:00,
2013-02-23 19:07:00,30.4,29.4,30.03,East,83,1.2,1.2,96,0.00,CLR,FEW,0.00,WeatherDisplay:10.37,2013-02-24 00:07:00,
2013-02-23 19:12:00,30.4,29.4,30.03,East,83,1.2,1.2,96,0.00,CLR,FEW,0.00,WeatherDisplay:10.37,2013-02-24 00:12:00,
2013-02-23 19:17:00,30.4,29.4,30.04,East,83,0.0,0.0,96,0.00,CLR,FEW,0.00,WeatherDisplay:10.37,2013-02-24 00:17:00,
2013-02-23 19:22:00,30.4,29.4,30.04,East,83,0.0,0.0,96,0.00,CLR,FEW,0.00,WeatherDisplay:10.37,2013-02-24 00:22:00,
2013-02-23 19:27:00,30.4,29.4,30.03,East,83,1.2,0.0,96,0.00,CLR,FEW,0.00,WeatherDisplay:10.37,2013-02-24 00:27:00,
2013-02-23 19:32:00,30.4,29.4,30.03,East,83,1.2,1.2,96,0.00,CLR,FEW,0.00,WeatherDisplay:10.37,2013-02-24 00:32:00,
2013-02-23 19:37:00,30.4,29.4,30.02,East,83,2.3,2.3,96,0.00,CLR,FEW,0.00,WeatherDisplay:10.37,2013-02-24 00:37:00,
2013-02-23 19:42:00,30.4,29.4,30.02,East,83,1.2,1.2,96,0.00,CLR,FEW,0.00,WeatherDisplay:10.37,2013-02-24 00:42:00,
2013-02-23 19:47:00,30.4,29.4,30.02,East,83,1.2,1.2,96,0.00,CLR,FEW,0.00,WeatherDisplay:10.37,2013-02-24 00:47:00,
2013-02-23 19:52:00,30.3,29.3,30.02,East,83,2.3,2.3,96,0.00,CLR,FEW,0.00,WeatherDisplay:10.37,2013-02-24 00:52:00,
2013-02-23 19:57:00,30.4,29.4,30.02,East,83,1.2,0.0,96,0.00,CLR,FEW,0.00,WeatherDisplay:10.37,2013-02-24 00:57:00,
2013-02-23 20:02:00,30.4,29.4,30.02,ENE,63,2.3,2.3,96,0.00,CLR,FEW,0.00,WeatherDisplay:10.37,2013-02-24 01:02:00,
2013-02-23 20:07:00,30.4,29.4,30.02,ENE,63,1.2,1.2,96,0.00,CLR,FEW,0.00,WeatherDisplay:10.37,2013-02-24 01:07:00,
2013-02-23 20:12:00,30.4,29.4,30.02,ENE,63,1.2,0.0,96,0.00,CLR,FEW,0.00,WeatherDisplay:10.37,2013-02-24 01:12:00,
2013-02-23 20:17:00,30.4,29.4,30.02,ENE,63,1.2,0.0,96,0.00,CLR,FEW,0.00,WeatherDisplay:10.37,2013-02-24 01:17:00,
2013-02-23 20:22:00,30.4,29.4,30.01,ENE,63,2.3,2.3,96,0.00,CLR,FEW,0.00,WeatherDisplay:10.37,2013-02-24 01:22:00,
2013-02-23 20:27:00,30.3,29.3,30.01,ENE,63,1.2,1.2,96,0.00,CLR,FEW,0.00,WeatherDisplay:10.37,2013-02-24 01:27:00,
2013-02-23 20:32:00,30.4,29.4,30.01,ENE,63,1.2,1.2,96,0.00,CLR,FEW,0.00,WeatherDisplay:10.37,2013-02-24 01:32:00,
2013-02-23 20:37:00,30.4,29.4,30.00,ENE,63,2.3,2.3,96,0.00,CLR,FEW,0.00,WeatherDisplay:10.37,2013-02-24 01:37:00,
2013-02-23 20:42:00,30.4,29.4,30.00,ENE,63,1.2,0.0,96,0.00,CLR,FEW,0.00,WeatherDisplay:10.37,2013-02-24 01:42:00,
2013-02-23 20:47:00,30.5,29.5,30.00,ENE,70,2.3,2.3,96,0.00,CLR,FEW,0.00,WeatherDisplay:10.37,2013-02-24 01:47:00,
2013-02-23 20:52:00,30.5,29.5,30.00,ENE,70,2.0,2.0,96,0.00,CLR,FEW,0.00,WeatherDisplay:10.37,2013-02-24 01:52:00,
2013-02-23 20:57:00,30.5,29.5,30.00,East,89,2.3,2.3,96,0.00,CLR,FEW,0.00,WeatherDisplay:10.37,2013-02-24 01:57:00,
2013-02-23 21:02:00,30.5,29.5,30.00,East,89,1.2,1.2,96,0.00,CLR,FEW,0.00,WeatherDisplay:10.37,2013-02-24 02:02:00,
2013-02-23 21:07:00,30.5,29.5,30.01,North,351,3.5,3.5,96,0.00,CLR,FEW,0.00,WeatherDisplay:10.37,2013-02-24 02:07:00,
2013-02-23 21:12:00,30.5,29.5,30.00,NNE,20,1.2,1.2,96,0.00,CLR,FEW,0.00,WeatherDisplay:10.37,2013-02-24 02:12:00,
2013-02-23 21:17:00,30.5,29.5,30.00,NNE,26,2.3,2.3,96,0.00,CLR,FEW,0.00,WeatherDisplay:10.37,2013-02-24 02:17:00,
2013-02-23 21:22:00,30.5,29.5,30.00,NE,38,2.3,2.3,96,0.00,CLR,FEW,0.00,WeatherDisplay:10.37,2013-02-24 02:22:00,
2013-02-23 21:27:00,30.5,29.5,30.00,NE,38,1.2,0.0,96,0.00,CLR,FEW,0.00,WeatherDisplay:10.37,2013-02-24 02:27:00,
2013-02-23 21:32:00,30.5,29.5,30.00,NE,38,1.2,0.0,96,0.00,CLR,FEW,0.00,WeatherDisplay:10.37,2013-02-24 02:32:00,
2013-02-23 21:37:00,30.5,29.5,30.00,NE,38,1.2,1.2,96,0.00,CLR,FEW,0.00,WeatherDisplay:10.37,2013-02-24 02:37:00,
2013-02-23 21:42:00,30.5,29.5,29.99,NE,38,2.3,2.3,96,0.00,CLR,FEW,0.00,WeatherDisplay:10.37,2013-02-24 02:42:00,
2013-02-23 21:47:00,30.5,29.5,29.99,NE,38,1.2,1.2,96,0.00,CLR,FEW,0.00,WeatherDisplay:10.37,2013-02-24 02:47:00,
2013-02-23 21:52:00,30.6,29.6,29.99,NE,38,1.2,1.2,96,0.00,CLR,FEW,0.00,WeatherDisplay:10.37,2013-02-24 02:52:00,
2013-02-23 21:57:00,30.7,29.7,29.99,NE,38,1.2,1.2,96,0.00,CLR,FEW,0.00,WeatherDisplay:10.37,2013-02-24 02:57:00,
2013-02-23 22:02:00,30.8,29.8,29.98,NE,38,1.2,1.2,96,0.00,CLR,FEW,0.00,WeatherDisplay:10.37,2013-02-24 03:02:00,
2013-02-23 22:07:00,30.8,29.8,29.98,NE,38,1.2,1.2,96,0.00,CLR,FEW,0.00,WeatherDisplay:10.37,2013-02-24 03:07:00,
2013-02-23 22:12:00,30.9,29.9,29.98,NE,38,0.0,0.0,96,0.00,CLR,FEW,0.00,WeatherDisplay:10.37,2013-02-24 03:12:00,
2013-02-23 22:17:00,30.9,29.9,29.98,East,80,1.2,1.2,96,0.00,CLR,FEW,0.00,WeatherDisplay:10.37,2013-02-24 03:17:00,
2013-02-23 22:22:00,30.8,29.8,29.98,East,80,1.2,1.2,96,0.00,CLR,FEW,0.00,WeatherDisplay:10.37,2013-02-24 03:22:00,
2013-02-23 22:27:00,30.8,29.8,29.97,East,80,1.2,1.2,96,0.00,CLR,FEW,0.00,WeatherDisplay:10.37,2013-02-24 03:27:00,
2013-02-23 22:32:00,30.8,29.8,29.97,East,82,2.3,2.3,96,0.00,CLR,FEW,0.00,WeatherDisplay:10.37,2013-02-24 03:32:00,
2013-02-23 22:37:00,30.7,29.7,29.96,East,82,3.5,3.5,96,0.00,CLR,FEW,0.00,WeatherDisplay:10.37,2013-02-24 03:37:00,
2013-02-23 22:42:00,30.7,29.7,29.96,East,82,1.2,1.2,96,0.00,CLR,FEW,0.00,WeatherDisplay:10.37,2013-02-24 03:42:00,
2013-02-23 22:47:00,30.6,29.6,29.96,East,82,1.2,1.2,96,0.00,CLR,FEW,0.00,WeatherDisplay:10.37,2013-02-24 03:47:00,
2013-02-23 22:52:00,30.6,29.6,29.95,East,82,1.2,1.2,96,0.00,CLR,FEW,0.00,WeatherDisplay:10.37,2013-02-24 03:52:00,
2013-02-23 22:57:00,30.6,29.6,29.95,East,82,1.2,1.2,96,0.00,CLR,FEW,0.00,WeatherDisplay:10.37,2013-02-24 03:57:00,
2013-02-23 23:02:00,30.5,29.5,29.95,East,82,0.0,0.0,96,0.00,CLR,FEW,0.00,WeatherDisplay:10.37,2013-02-24 04:02:00,
2013-02-23 23:07:00,30.5,29.5,29.95,East,82,0.0,0.0,96,0.00,CLR,FEW,0.00,WeatherDisplay:10.37,2013-02-24 04:07:00,
2013-02-23 23:12:00,30.5,29.5,29.95,East,82,1.2,0.0,96,0.00,CLR,FEW,0.00,WeatherDisplay:10.37,2013-02-24 04:12:00,
2013-02-23 23:17:00,30.5,29.5,29.95,East,82,1.2,1.2,96,0.00,CLR,FEW,0.00,WeatherDisplay:10.37,2013-02-24 04:17:00,
2013-02-23 23:22:00,30.5,29.5,29.95,East,82,1.0,0.0,96,0.00,CLR,FEW,0.00,WeatherDisplay:10.37,2013-02-24 04:22:00,
2013-02-23 23:27:00,30.5,29.5,29.94,East,82,1.2,1.2,96,0.00,CLR,FEW,0.00,WeatherDisplay:10.37,2013-02-24 04:27:00,
2013-02-23 23:32:00,30.4,29.4,29.93,East,82,1.2,1.2,96,0.00,CLR,FEW,0.00,WeatherDisplay:10.37,2013-02-24 04:32:00,
2013-02-23 23:37:00,30.4,29.4,29.93,East,82,1.2,1.2,96,0.00,CLR,FEW,0.00,WeatherDisplay:10.37,2013-02-24 04:37:00,
2013-02-23 23:42:00,30.4,29.4,29.93,East,82,1.2,1.2,96,0.00,CLR,FEW,0.00,WeatherDisplay:10.37,2013-02-24 04:42:00,
2013-02-23 23:47:00,30.4,29.4,29.93,East,82,2.3,2.3,96,0.00,CLR,FEW,0.00,WeatherDisplay:10.37,2013-02-24 04:47:00,
2013-02-23 23:52:00,30.4,29.7,29.93,East,82,1.2,1.2,97,0.00,CLR,FEW,0.00,WeatherDisplay:10.37,2013-02-24 04:52:00,
2013-02-23 23:57:00,30.4,29.7,29.93,East,82,1.2,1.2,97,0.00,CLR,FEW,0.00,WeatherDisplay:10.37,2013-02-24 04:57:00,